SKYSAT-C4 (41771 NORAD) Tracking and Keplerian Element Data

This shows tracking and keplerian element data for the satellite.

Feedback or suggestion? Click here.




ElementValue
Catalog41771
NameSKYSAT-C4
Epoch Orbit46872
Epoch Day34.65877305
Epoch Year2025
RAAN76.3266
Inclination96.9763
Eccentricity0.0004923
Argument of Perigee87.7968
Mean Anonmoly272.3839
Mean Motion15.34439402
Decay Rate7.359E-05
L11 41771U 16058B 25034.65877305 .00007359 00000+0 22275-3 0 9999
L22 41771 96.9763 76.3266 0004923 87.7968 272.3839 15.34439402468721



Live tracking and technical data element details for SKYSAT-C4 (NORAD 41771). SKYSAT-C4 can be tracked NOW for your location showing map with azimuth and elevation plus other details from your city location.







IsCatalogInMostPopularTable: catalog: 41771, numindb: 578
Update: records affected: 1



GetName: 41771 SKYSAT-C4

Hit Count: updated at: Thu, 15 May 2025 18:49:23 GMT